Regional Weather Roundup
Issued by NWS Cleveland, OH

Home | Current Version | Previous Version | Graphics & Text | Print | Product List | Glossary On
Versions: 1 2 3 4 5 6 7 8 9 10 11 12 13 14 15 16 17 18 19 20 21 22 23 24 25 26 27 28 29 30 31 32 33 34 35 36 37 38 39 40 41 42 43 44 45 46 47 48 49 50
000
ASUS41 KCLE 181400
RWRCLE
OHIO REGIONAL WEATHER ROUNDUP
NATIONAL WEATHER SERVICE WILMINGTON, OH
1000 AM EDT FRI AUG 18 2017

NOTE: "FAIR" INDICATES FEW OR NO CLOUDS BELOW 12,000 FEET WITH NO
SIGNIFICANT WEATHER AND/OR OBSTRUCTIONS TO VISIBILITY.

OHZ001>008-015>018-024>027-034-035-043-044-181500-
   NORTHWEST OHIO

CITY           SKY/WX    TMP DP  RH WIND       PRES   REMARKS
DEFIANCE       FAIR      73  65  75 VRB6G18   29.83R
FINDLAY        FAIR      76  65  68 W13       29.83R
TOLEDO EXPRESS FAIR      73  66  78 W17       29.80R
TOLEDO EXEC    FAIR      75  67  76 SW16      29.80S
LIMA           FAIR      74  66  76 W15G22    29.85S
$$

OHZ009>014-019>023-028>033-038-089-181500-
   NORTHEAST OHIO

CITY           SKY/WX    TMP DP  RH WIND       PRES   REMARKS
CLE-HOPKINS    FAIR      80  67  64 SW15      29.82S
CLE-LAKEFRONT  FAIR      78  67  68 W14       29.80R
CUY CO. ARPT   NOT AVBL
LORAIN-ELYRIA  FAIR      75  63  66 W9        29.82S
ASHTABULA      FAIR      77  72  84 SW10      29.81S
AKRON-CANTON   PTSUNNY   79  66  64 W14       29.84S
WOOSTER        NOT AVBL
MANSFIELD      FAIR      75  66  73 W14G22    29.85S
YOUNGSTOWN     CLOUDY    76  69  79 W10       29.84R
$$

OHZ042-051>053-060>062-070>072-077>081-181500-
  SOUTHWEST OHIO

CITY           SKY/WX    TMP DP  RH WIND       PRES   REMARKS
CINC-COVINGTON PTSUNNY   76  72  87 W12       29.91R
CINC-LUNKEN    FAIR      78  72  81 W9        29.90R
HAMILTON       FAIR      78  70  76 SW8       29.90S
DAYTON         NOT AVBL
WRIGHT-PAT AFB MOSUNNY   76  69  76 W9        29.88S
DAYTON GENERAL FAIR      76  66  71 SW6       29.89S
WILMINGTON     PTSUNNY   75  71  87 W9        29.90R
$$

OHZ036-037-039>041-045>050-054>059-063>069-073>076-082>088-181500-
  CENTRAL AND SOUTHEAST OHIO

CITY           SKY/WX    TMP DP  RH WIND       PRES   REMARKS
COLUMBUS       FAIR      78  71  79 W10       29.86R
OSU AIRPORT    FAIR      76  71  85 W12       29.87R
BOLTON FIELD   MOSUNNY   75  70  83 W12G20    29.88R
RICKENBACK AFB NOT AVBL
NEWARK         FAIR      78  69  73 W12       29.85S
MARION         FAIR      75  66  73 W10       29.86R
LANCASTER      FAIR      77  71  82 W8        29.87R
ZANESVILLE     PTSUNNY   79  71  76 W9        29.86R
NEW PHILLY     FAIR      78  72  81 VRB6      29.86R
$$




USA.gov is the U.S. government's official web portal to all federal, state and local government web resources and services.